Location: Unspecified
(35.7250°N, 0.0000°E)
Time: 22:37:47
(UTC+00:00)

Explorer 7 - Pass Details

Date: 20 June 2019
Orbit: 485 x 680 km, 50.3° (Epoch: 13 October)

Event Time Altitude Azimuth Distance (km) Brightness Sun altitude
Rises 08:25:19 0° 218° (SW) 2,697 10.1 42.0°
Reaches altitude 10° 08:27:30 10° 214° (SW) 1,839 9.3 42.5°
Maximum altitude 08:31:37 57° 136° (SE) 689 8.5 43.3°
Drops below altitude 10° 08:36:03 10° 58° (ENE) 1,973 10.4 44.2°
Sets 08:38:28 0° 54° (NE) 2,915 11.0 44.7°
